Torna al catalogo

NOAA 16 DEB

AttivoSSO
NORAD 41660·DEBRIS·🇺🇸 United States

Lanciato Sep 21, 2000 da Vandenberg Space Force Base

Loading…

Prossimi Passaggi (prossime 24 ore)

TLE

AggiornatoSource: Space-Track

Epoca: Sep 13, 2026, 02:26 UTC

1 41660U 00055NZ  26256.10204465  .00003440  00000-0  10917-2 0  9991
2 41660  98.7455   8.6761 0016378 238.0846 121.8749 14.40587962540132

Traccia NOAA 16 DEB in tempo reale con AllMySat

Download on the App Store